Retour au catalogue

GONETS M 13

M23

ActifCommunicationsPO
NORAD 40554·PAYLOAD·🇷🇺 Russia

Lancé Mar 31, 2015 depuis Plesetsk Cosmodrome

Loading…

Prochains Passages (prochaines 24 heures)

TLE

FraisSource: Space-Track

Époque: Sep 14, 2026, 15:07 UTC

1 40554U 15020C   26257.62988834  .00000042  00000-0  22980-3 0  9996
2 40554  82.4912 335.0046 0014866 134.6523 225.5771 12.42886934519816

Suivez GONETS M 13 en temps réel avec AllMySat

Download on the App Store